SMOS

Last updated on Sun Jun 21 2026 00:02:51 GMT+0000 (Coordinated Universal Time)

1 36036U 09059A 26171.45582071 .00000169 00000+0 67815-4 0 9996 2 36036 98.4426 358.7428 0001324 87.9186 272.2154 14.39774008873924
UTC large
Height (km)
Speed (km/s)
/
Latitude / Longitude
Inclination (degrees)
Orbital Period (minutes)
Azimuth
Elevation
Range (km)
Doppler Factor

Next 0 passes for location: London (51.5072 / 0.1276)

No passes found over London.
SMOS